User: anonymous   Login
Location: Unspecified
(0.0000°N, 0.0000°E)
Time: 07:36:20
(UTC+00:00)
Language:

SAUDISAT 1B - Orbit

View from above orbital plane
View from above orbital plane
View from above satellite
View from above satellite

Ground track
Ground track

The orbit data is extracted from the following two-line orbital elements,

1 26549U 00057E   17289.93905989 +.00000096 +00000-0 +29728-4 0  9994
2 26549 064.5515 104.4842 0033389 204.3778 155.5751 14.83409154921497
Epoch (UTC): 16 October 2017 22:32:14
Eccentricity: 0.0033389
inclination: 64.5515°
perigee height: 595 km
apogee height: 642 km
right ascension of ascending node: 104.4842°
argument of perigee: 204.3778°
revolutions per day: 14.83409154
mean anomaly at epoch: 155.5751°
orbit number at epoch: 92149

The dashed part of the orbit path shows where the satellite is in the earth's shadow,  

DLR